Regional Weather Roundup
Issued by NWS

Home | Current Version | Previous Version | Text Only | Print | Product List | Glossary Off
Versions: 1 2 3 4 5 6 7 8 9 10 11 12 13 14 15 16 17 18 19 20 21 22 23 24 25 26 27 28 29 30 31 32 33 34 35 36 37 38 39 40 41 42 43 44 45 46 47 48 49 50

000
ASUS44 KMEG 261000
RWRTN
TENNESSEE HOURLY STATE WEATHER ROUNDUP
NATIONAL WEATHER SERVICE MEMPHIS TN
500 AM CDT TUE JUL 26 2016

TNZ002-004-019-021-049-052-054-088>092-261100-
WEST TENNESSEE

CITY           SKY/WX    TMP DP  RH WIND       PRES   REMARKS
MEMPHIS INTL   CLEAR     82  73  74 SE5       29.98R
NWS MEMPHIS      N/A     75 N/A N/A MISG        N/A
JACKSON        CLEAR     74  72  93 CALM      30.01R
DYERSBURG      CLEAR     73  72  94 MISG      30.00S
PARIS          CLEAR     68  68 100 CALM      30.02S
LEXINGTON      CLEAR     72  70  94 CALM      30.00S
$$

TNZ008-025-027-028-033-062-065-066-261100-
NORTH MIDDLE TENNESSEE

CITY           SKY/WX    TMP DP  RH WIND       PRES   REMARKS
NASHVILLE      CLEAR     75  71  87 CALM      30.03R
CLARKSVILLE    LGT RAIN  73  71  93 CALM      30.01S
COOKEVILLE     CLEAR     73  72  94 CALM      30.05S
CROSSVILLE     CLEAR     72  69  90 CALM      30.11R
$$

TNZ061-075-076-078-094-096-097-261100-
SOUTH MIDDLE TENNESSEE

CITY           SKY/WX    TMP DP  RH WIND       PRES   REMARKS
TULLAHOMA      CLEAR     72  70  94 CALM      30.06S
WINCHESTER     CLEAR     73  72  94 CALM      30.05R
MCMINNVILLE    CLEAR     73  73 100 CALM      30.06R
COLUMBIA       CLEAR    N/A N/A N/A CALM      30.01S
SHELBYVILLE    CLEAR     75  75 100 CALM      30.05R
$$

TNZ017-018-042-046-047-261100-
NORTHEAST TENNESSEE

CITY           SKY/WX    TMP DP  RH WIND       PRES   REMARKS
TRI CITIES     MOCLDY    71  69  93 CALM      30.08R
$$

TNZ012-013-036-069-073-074-261100-
CENTRAL EAST TENNESSEE

CITY           SKY/WX    TMP DP  RH WIND       PRES   REMARKS
KNOXVILLE      PTCLDY    76  70  82 SW5       30.05S
OAK RIDGE      PTCLDY    77  72  84 CALM      30.06S
GATLINBURG     PTCLDY    72  70  94 CALM      30.06R
$$

TNZ083-085-099-261100-
SOUTHEAST TENNESSEE

CITY           SKY/WX    TMP DP  RH WIND       PRES   REMARKS
CHATTANOOGA    CLOUDY    79  71  76 N5        30.03S
$$

SKY/WX REPORTED AS FAIR MEANS FEW OR NO CLOUDS BELOW
12 THOUSAND FEET.





USA.gov is the U.S. government's official web portal to all federal, state and local government web resources and services.